Time,TemperatureF,DewpointF,PressureIn,WindDirection,WindDirectionDegrees,WindSpeedMPH,WindSpeedGustMPH,Humidity,HourlyPrecipIn,Conditions,Clouds,dailyrainin,SoftwareType,DateUTC
2013-07-20 00:01:00,79.7,0.0,29.69,SW,225,2.0,3.6,0,0.00,,,0.00,WUHU216HW,2013-07-20 04:01:00,
2013-07-20 00:06:00,79.6,0.0,29.69,WSW,248,1.3,3.6,0,0.00,,,0.00,WUHU216HW,2013-07-20 04:06:00,
2013-07-20 00:11:00,79.2,0.0,29.69,WSW,248,1.8,5.4,0,0.00,,,0.00,WUHU216HW,2013-07-20 04:11:00,
2013-07-20 00:16:00,79.4,0.0,29.70,NW,315,0.4,5.4,0,0.00,,,0.00,WUHU216HW,2013-07-20 04:16:00,
2013-07-20 00:21:00,79.7,0.0,29.70,WSW,248,3.8,4.7,0,0.00,,,0.00,WUHU216HW,2013-07-20 04:21:00,
2013-07-20 00:26:00,80.1,0.0,29.71,WNW,293,3.8,4.7,0,0.00,,,0.00,WUHU216HW,2013-07-20 04:26:00,
2013-07-20 00:31:00,80.5,0.0,29.71,WNW,293,7.6,13.4,0,0.00,,,0.00,WUHU216HW,2013-07-20 04:31:00,
2013-07-20 00:36:00,81.2,0.0,29.71,North,0,4.7,14.1,0,0.00,,,0.00,WUHU216HW,2013-07-20 04:36:00,
2013-07-20 00:41:00,81.5,0.0,29.71,West,270,8.5,14.1,0,0.00,,,0.00,WUHU216HW,2013-07-20 04:41:00,
2013-07-20 00:46:00,81.5,0.0,29.71,NNW,338,5.6,13.6,0,0.00,,,0.00,WUHU216HW,2013-07-20 04:46:00,
2013-07-20 00:51:00,81.0,0.0,29.71,WNW,293,7.2,7.8,0,0.00,,,0.00,WUHU216HW,2013-07-20 04:51:00,
2013-07-20 00:56:00,80.6,0.0,29.70,West,270,3.6,7.6,0,0.00,,,0.00,WUHU216HW,2013-07-20 04:56:00,
2013-07-20 01:01:00,80.3,0.0,29.70,SSE,158,1.8,7.6,0,0.00,,,0.00,WUHU216HW,2013-07-20 05:01:00,
2013-07-20 01:06:00,79.9,0.0,29.70,WNW,293,4.5,6.3,0,0.00,,,0.00,WUHU216HW,2013-07-20 05:06:00,
2013-07-20 01:11:00,79.6,0.0,29.70,West,270,2.0,6.5,0,0.00,,,0.00,WUHU216HW,2013-07-20 05:11:00,
2013-07-20 01:16:00,79.2,0.0,29.71,WSW,248,1.3,6.5,0,0.00,,,0.00,WUHU216HW,2013-07-20 05:16:00,
2013-07-20 01:21:00,78.8,0.0,29.70,South,180,2.7,3.4,0,0.00,,,0.00,WUHU216HW,2013-07-20 05:21:00,
2013-07-20 01:26:00,78.7,0.0,29.69,NW,315,2.0,3.4,0,0.00,,,0.00,WUHU216HW,2013-07-20 05:26:00,
2013-07-20 01:31:00,78.5,0.0,29.69,SW,225,4.7,4.7,0,0.00,,,0.00,WUHU216HW,2013-07-20 05:31:00,
2013-07-20 01:36:00,77.9,0.0,29.69,SSW,203,1.1,4.7,0,0.00,,,0.00,WUHU216HW,2013-07-20 05:36:00,
2013-07-20 01:41:00,77.4,0.0,29.68,South,180,0.0,2.2,0,0.00,,,0.00,WUHU216HW,2013-07-20 05:41:00,
2013-07-20 01:46:00,77.2,0.0,29.68,SSE,158,0.4,1.1,0,0.00,,,0.00,WUHU216HW,2013-07-20 05:46:00,
2013-07-20 01:51:00,76.3,0.0,29.68,WSW,248,0.0,1.1,0,0.00,,,0.00,WUHU216HW,2013-07-20 05:51:00,
2013-07-20 01:56:00,75.8,0.0,29.68,SSW,203,0.2,1.1,0,0.00,,,0.00,WUHU216HW,2013-07-20 05:56:00,
2013-07-20 02:01:00,75.2,0.0,29.68,SSE,158,0.4,1.6,0,0.00,,,0.00,WUHU216HW,2013-07-20 06:01:00,
2013-07-20 02:06:00,74.9,0.0,29.68,SSW,203,0.4,2.2,0,0.00,,,0.00,WUHU216HW,2013-07-20 06:06:00,
2013-07-20 02:11:00,74.5,0.0,29.68,South,180,0.7,2.5,0,0.00,,,0.00,WUHU216HW,2013-07-20 06:11:00,
2013-07-20 02:16:00,74.2,0.0,29.68,South,180,0.7,3.1,0,0.00,,,0.00,WUHU216HW,2013-07-20 06:16:00,
2013-07-20 02:21:00,73.8,0.0,29.68,West,270,3.4,3.8,0,0.00,,,0.00,WUHU216HW,2013-07-20 06:21:00,
2013-07-20 02:26:00,73.8,0.0,29.67,NW,315,0.4,3.8,0,0.00,,,0.00,WUHU216HW,2013-07-20 06:26:00,
2013-07-20 02:31:00,73.8,0.0,29.67,WSW,248,2.2,2.5,0,0.00,,,0.00,WUHU216HW,2013-07-20 06:31:00,
2013-07-20 02:36:00,73.8,0.0,29.67,WNW,293,1.1,2.5,0,0.00,,,0.00,WUHU216HW,2013-07-20 06:36:00,
2013-07-20 02:41:00,73.8,0.0,29.67,SSW,203,1.8,2.0,0,0.00,,,0.00,WUHU216HW,2013-07-20 06:41:00,
2013-07-20 02:46:00,73.8,0.0,29.67,SW,225,4.5,4.5,0,0.00,,,0.00,WUHU216HW,2013-07-20 06:46:00,
2013-07-20 02:51:00,73.8,0.0,29.67,WSW,248,2.0,4.5,0,0.00,,,0.00,WUHU216HW,2013-07-20 06:51:00,
2013-07-20 02:56:00,74.0,0.0,29.67,SSE,158,1.8,4.3,0,0.00,,,0.00,WUHU216HW,2013-07-20 06:56:00,
2013-07-20 03:01:00,74.2,0.0,29.67,WSW,248,2.2,2.2,0,0.00,,,0.00,WUHU216HW,2013-07-20 07:01:00,
2013-07-20 03:06:00,74.3,0.0,29.67,SW,225,0.7,3.1,0,0.00,,,0.00,WUHU216HW,2013-07-20 07:06:00,
2013-07-20 03:11:00,74.2,0.0,29.66,WNW,293,3.1,3.1,0,0.00,,,0.00,WUHU216HW,2013-07-20 07:11:00,
2013-07-20 03:16:00,74.0,0.0,29.66,SSW,203,2.5,3.1,0,0.00,,,0.00,WUHU216HW,2013-07-20 07:16:00,
2013-07-20 03:21:00,73.8,0.0,29.66,West,270,1.8,2.5,0,0.00,,,0.00,WUHU216HW,2013-07-20 07:21:00,
2013-07-20 03:26:00,73.8,0.0,29.66,West,270,2.2,4.7,0,0.00,,,0.00,WUHU216HW,2013-07-20 07:26:00,
2013-07-20 03:31:00,73.8,0.0,29.67,WNW,293,2.5,4.7,0,0.00,,,0.00,WUHU216HW,2013-07-20 07:31:00,
2013-07-20 03:36:00,74.0,0.0,29.67,NW,315,1.6,2.7,0,0.00,,,0.00,WUHU216HW,2013-07-20 07:36:00,
2013-07-20 03:41:00,74.2,0.0,29.67,SSW,203,0.9,2.5,0,0.00,,,0.00,WUHU216HW,2013-07-20 07:41:00,
2013-07-20 03:46:00,74.2,0.0,29.67,SSW,203,1.1,2.2,0,0.00,,,0.00,WUHU216HW,2013-07-20 07:46:00,
2013-07-20 03:51:00,74.0,0.0,29.67,West,270,1.1,4.5,0,0.00,,,0.00,WUHU216HW,2013-07-20 07:51:00,
2013-07-20 03:56:00,74.0,0.0,29.67,ESE,113,0.7,4.5,0,0.00,,,0.00,WUHU216HW,2013-07-20 07:56:00,
2013-07-20 04:01:00,74.0,0.0,29.67,WSW,248,1.3,2.5,0,0.00,,,0.00,WUHU216HW,2013-07-20 08:01:00,
2013-07-20 04:06:00,73.8,0.0,29.67,SW,225,2.0,2.7,0,0.00,,,0.00,WUHU216HW,2013-07-20 08:06:00,
2013-07-20 04:11:00,73.6,0.0,29.67,SW,225,2.0,2.7,0,0.00,,,0.00,WUHU216HW,2013-07-20 08:11:00,
2013-07-20 04:16:00,73.6,0.0,29.67,SW,225,1.6,2.7,0,0.00,,,0.00,WUHU216HW,2013-07-20 08:16:00,
2013-07-20 04:21:00,73.8,0.0,29.67,WSW,248,1.3,2.7,0,0.00,,,0.00,WUHU216HW,2013-07-20 08:21:00,
2013-07-20 04:26:00,73.8,0.0,29.66,SSW,203,1.3,2.5,0,0.00,,,0.00,WUHU216HW,2013-07-20 08:26:00,
2013-07-20 04:31:00,73.8,0.0,29.66,WSW,248,2.9,2.9,0,0.00,,,0.00,WUHU216HW,2013-07-20 08:31:00,
2013-07-20 04:36:00,73.6,0.0,29.66,WSW,248,2.9,3.6,0,0.00,,,0.00,WUHU216HW,2013-07-20 08:36:00,
2013-07-20 04:41:00,73.4,0.0,29.66,WSW,248,1.1,3.6,0,0.00,,,0.00,WUHU216HW,2013-07-20 08:41:00,
2013-07-20 04:46:00,73.1,0.0,29.67,WNW,293,0.2,1.8,0,0.00,,,0.00,WUHU216HW,2013-07-20 08:46:00,
2013-07-20 04:51:00,73.1,0.0,29.67,SSE,158,0.4,1.8,0,0.00,,,0.00,WUHU216HW,2013-07-20 08:51:00,
2013-07-20 04:56:00,72.7,0.0,29.67,SW,225,0.9,2.9,0,0.00,,,0.00,WUHU216HW,2013-07-20 08:56:00,
2013-07-20 05:01:00,72.4,0.0,29.67,West,270,1.6,2.9,0,0.00,,,0.00,WUHU216HW,2013-07-20 09:01:00,
2013-07-20 05:06:00,72.2,0.0,29.67,SE,135,0.7,1.6,0,0.00,,,0.00,WUHU216HW,2013-07-20 09:06:00,
2013-07-20 05:11:00,72.0,0.0,29.67,North,0,0.0,1.1,0,0.00,,,0.00,WUHU216HW,2013-07-20 09:11:00,
2013-07-20 05:16:00,72.0,0.0,29.67,WNW,293,0.9,1.6,0,0.00,,,0.00,WUHU216HW,2013-07-20 09:16:00,
2013-07-20 05:21:00,71.8,0.0,29.67,SW,225,0.0,1.6,0,0.00,,,0.00,WUHU216HW,2013-07-20 09:21:00,
2013-07-20 05:26:00,71.8,0.0,29.67,SSE,158,0.2,1.3,0,0.00,,,0.00,WUHU216HW,2013-07-20 09:26:00,
2013-07-20 05:31:00,71.8,0.0,29.67,SW,225,0.7,1.8,0,0.00,,,0.00,WUHU216HW,2013-07-20 09:31:00,
2013-07-20 05:36:00,71.5,0.0,29.68,WSW,248,0.4,1.8,0,0.00,,,0.00,WUHU216HW,2013-07-20 09:36:00,
2013-07-20 05:41:00,71.5,0.0,29.68,SE,135,0.2,1.6,0,0.00,,,0.00,WUHU216HW,2013-07-20 09:41:00,
2013-07-20 05:46:00,71.3,0.0,29.68,WNW,293,0.7,1.3,0,0.00,,,0.00,WUHU216HW,2013-07-20 09:46:00,
2013-07-20 05:51:00,71.1,0.0,29.68,NW,315,0.0,0.7,0,0.00,,,0.00,WUHU216HW,2013-07-20 09:51:00,
2013-07-20 05:56:00,71.3,0.0,29.68,WSW,248,0.0,0.9,0,0.00,,,0.00,WUHU216HW,2013-07-20 09:56:00,
2013-07-20 06:01:00,71.3,0.0,29.68,WSW,248,0.0,0.9,0,0.00,,,0.00,WUHU216HW,2013-07-20 10:01:00,
2013-07-20 06:06:00,71.5,0.0,29.68,WNW,293,0.9,1.6,0,0.00,,,0.00,WUHU216HW,2013-07-20 10:06:00,
2013-07-20 06:11:00,71.5,0.0,29.68,WNW,293,0.7,1.6,0,0.00,,,0.00,WUHU216HW,2013-07-20 10:11:00,
2013-07-20 06:16:00,71.6,0.0,29.68,WNW,293,0.0,1.1,0,0.00,,,0.00,WUHU216HW,2013-07-20 10:16:00,
2013-07-20 06:21:00,71.6,0.0,29.68,WNW,293,0.7,0.7,0,0.00,,,0.00,WUHU216HW,2013-07-20 10:21:00,
2013-07-20 06:26:00,72.2,0.0,29.68,WNW,293,0.0,1.1,0,0.00,,,0.00,WUHU216HW,2013-07-20 10:26:00,
2013-07-20 06:31:00,72.2,0.0,29.68,West,270,0.0,1.1,0,0.00,,,0.00,WUHU216HW,2013-07-20 10:31:00,
2013-07-20 06:36:00,72.5,0.0,29.68,West,270,0.0,0.4,0,0.00,,,0.00,WUHU216HW,2013-07-20 10:36:00,
2013-07-20 06:41:00,72.7,0.0,29.68,West,270,0.4,0.9,0,0.00,,,0.00,WUHU216HW,2013-07-20 10:41:00,
2013-07-20 06:46:00,73.1,0.0,29.68,WNW,293,0.0,0.9,0,0.00,,,0.00,WUHU216HW,2013-07-20 10:46:00,
2013-07-20 06:51:00,73.4,0.0,29.68,SW,225,0.0,0.7,0,0.00,,,0.00,WUHU216HW,2013-07-20 10:51:00,
2013-07-20 06:56:00,73.6,0.0,29.69,WSW,248,0.0,0.7,0,0.00,,,0.00,WUHU216HW,2013-07-20 10:56:00,
2013-07-20 07:01:00,73.8,0.0,29.69,WSW,248,0.0,0.9,0,0.00,,,0.00,WUHU216HW,2013-07-20 11:01:00,
2013-07-20 07:06:00,73.8,0.0,29.68,WSW,248,0.4,0.9,0,0.00,,,0.00,WUHU216HW,2013-07-20 11:06:00,
2013-07-20 07:11:00,73.8,0.0,29.69,SSW,203,0.2,1.1,0,0.00,,,0.00,WUHU216HW,2013-07-20 11:11:00,
2013-07-20 07:16:00,74.2,0.0,29.69,NW,315,2.5,2.5,0,0.00,,,0.00,WUHU216HW,2013-07-20 11:16:00,
2013-07-20 07:21:00,74.9,0.0,29.69,West,270,1.1,2.5,0,0.00,,,0.00,WUHU216HW,2013-07-20 11:21:00,
2013-07-20 07:26:00,75.4,0.0,29.69,WSW,248,1.3,1.6,0,0.00,,,0.00,WUHU216HW,2013-07-20 11:26:00,
2013-07-20 07:31:00,75.8,0.0,29.69,West,270,0.4,1.8,0,0.00,,,0.00,WUHU216HW,2013-07-20 11:31:00,
2013-07-20 07:36:00,76.1,0.0,29.69,WNW,293,1.3,1.8,0,0.00,,,0.00,WUHU216HW,2013-07-20 11:36:00,
2013-07-20 07:41:00,76.5,0.0,29.69,WNW,293,0.0,1.3,0,0.00,,,0.00,WUHU216HW,2013-07-20 11:41:00,
2013-07-20 07:46:00,76.7,0.0,29.69,South,180,0.2,1.3,0,0.00,,,0.00,WUHU216HW,2013-07-20 11:46:00,
2013-07-20 07:51:00,77.2,0.0,29.69,SSW,203,0.7,1.1,0,0.00,,,0.00,WUHU216HW,2013-07-20 11:51:00,
2013-07-20 07:56:00,77.6,0.0,29.69,West,270,1.3,1.3,0,0.00,,,0.00,WUHU216HW,2013-07-20 11:56:00,
2013-07-20 08:01:00,77.8,0.0,29.69,SW,225,0.9,1.3,0,0.00,,,0.00,WUHU216HW,2013-07-20 12:01:00,
2013-07-20 08:06:00,78.1,0.0,29.70,WNW,293,2.2,2.2,0,0.00,,,0.00,WUHU216HW,2013-07-20 12:06:00,
2013-07-20 08:11:00,78.5,0.0,29.70,WSW,248,0.4,2.2,0,0.00,,,0.00,WUHU216HW,2013-07-20 12:11:00,
2013-07-20 08:16:00,78.8,0.0,29.70,WSW,248,0.7,0.9,0,0.00,,,0.00,WUHU216HW,2013-07-20 12:16:00,
2013-07-20 08:21:00,78.8,0.0,29.70,West,270,1.1,1.1,0,0.00,,,0.00,WUHU216HW,2013-07-20 12:21:00,
2013-07-20 08:26:00,79.6,0.0,29.70,WSW,248,1.6,1.6,0,0.00,,,0.00,WUHU216HW,2013-07-20 12:26:00,
2013-07-20 08:31:00,79.6,0.0,29.70,SW,225,0.7,1.6,0,0.00,,,0.00,WUHU216HW,2013-07-20 12:31:00,
2013-07-20 08:36:00,79.6,0.0,29.70,West,270,1.1,1.1,0,0.00,,,0.00,WUHU216HW,2013-07-20 12:36:00,
2013-07-20 08:41:00,79.7,0.0,29.70,West,270,0.0,1.1,0,0.00,,,0.00,WUHU216HW,2013-07-20 12:41:00,
2013-07-20 08:46:00,79.9,0.0,29.70,WSW,248,0.4,1.1,0,0.00,,,0.00,WUHU216HW,2013-07-20 12:46:00,
2013-07-20 08:51:00,79.9,0.0,29.69,South,180,0.0,1.6,0,0.00,,,0.00,WUHU216HW,2013-07-20 12:51:00,
2013-07-20 08:56:00,80.1,0.0,29.69,WSW,248,0.7,1.6,0,0.00,,,0.00,WUHU216HW,2013-07-20 12:56:00,
2013-07-20 09:01:00,80.3,0.0,29.69,WNW,293,1.1,2.5,0,0.00,,,0.00,WUHU216HW,2013-07-20 13:01:00,
2013-07-20 09:06:00,80.8,0.0,29.69,WSW,248,0.4,2.5,0,0.00,,,0.00,WUHU216HW,2013-07-20 13:06:00,
2013-07-20 09:11:00,81.0,0.0,29.69,West,270,0.9,1.6,0,0.00,,,0.00,WUHU216HW,2013-07-20 13:11:00,
2013-07-20 09:16:00,81.7,0.0,29.69,South,180,3.1,3.1,0,0.00,,,0.00,WUHU216HW,2013-07-20 13:16:00,
2013-07-20 09:21:00,81.9,0.0,29.68,WSW,248,1.3,3.4,0,0.00,,,0.00,WUHU216HW,2013-07-20 13:21:00,
2013-07-20 09:26:00,82.1,0.0,29.68,West,270,0.0,3.4,0,0.00,,,0.00,WUHU216HW,2013-07-20 13:26:00,
2013-07-20 09:28:00,82.1,0.0,29.68,West,270,0.0,3.4,0,0.00,,,0.00,WUHU216HW,2013-07-20 13:28:00,
2013-07-20 09:33:00,82.4,0.0,29.68,SSW,203,1.3,2.7,0,0.00,,,0.00,WUHU216HW,2013-07-20 13:33:00,
2013-07-20 09:38:00,82.4,0.0,29.68,West,270,3.4,3.4,0,0.00,,,0.00,WUHU216HW,2013-07-20 13:38:00,
2013-07-20 09:43:00,82.4,0.0,29.68,SSW,203,1.8,3.4,0,0.00,,,0.00,WUHU216HW,2013-07-20 13:43:00,
2013-07-20 09:48:00,82.4,0.0,29.67,South,180,1.3,3.4,0,0.00,,,0.00,WUHU216HW,2013-07-20 13:48:00,
2013-07-20 09:53:00,82.8,0.0,29.68,WSW,248,1.8,3.4,0,0.00,,,0.00,WUHU216HW,2013-07-20 13:53:00,
2013-07-20 09:58:00,82.8,0.0,29.67,WNW,293,2.0,3.4,0,0.00,,,0.00,WUHU216HW,2013-07-20 13:58:00,
2013-07-20 10:03:00,83.0,0.0,29.68,SW,225,0.9,3.6,0,0.00,,,0.00,WUHU216HW,2013-07-20 14:03:00,
2013-07-20 10:08:00,84.2,0.0,29.67,SE,135,1.3,3.6,0,0.00,,,0.00,WUHU216HW,2013-07-20 14:08:00,
2013-07-20 10:13:00,85.3,0.0,29.67,WNW,293,3.6,5.6,0,0.00,,,0.00,WUHU216HW,2013-07-20 14:13:00,
2013-07-20 10:18:00,86.4,0.0,29.67,WSW,248,0.4,5.6,0,0.00,,,0.00,WUHU216HW,2013-07-20 14:18:00,
2013-07-20 10:23:00,87.1,0.0,29.67,WNW,293,1.8,5.1,0,0.00,,,0.00,WUHU216HW,2013-07-20 14:23:00,
2013-07-20 10:28:00,87.8,0.0,29.67,West,270,3.1,4.0,0,0.00,,,0.00,WUHU216HW,2013-07-20 14:28:00,
2013-07-20 10:33:00,87.8,0.0,29.68,West,270,4.0,4.9,0,0.00,,,0.00,WUHU216HW,2013-07-20 14:33:00,
2013-07-20 10:38:00,88.0,0.0,29.67,WSW,248,0.9,4.9,0,0.00,,,0.00,WUHU216HW,2013-07-20 14:38:00,
2013-07-20 10:43:00,88.9,0.0,29.67,WSW,248,4.9,5.4,0,0.00,,,0.00,WUHU216HW,2013-07-20 14:43:00,
2013-07-20 10:48:00,89.5,0.0,29.67,SSW,203,3.4,5.4,0,0.00,,,0.00,WUHU216HW,2013-07-20 14:48:00,
2013-07-20 10:53:00,90.2,0.0,29.67,NW,315,1.1,6.5,0,0.00,,,0.00,WUHU216HW,2013-07-20 14:53:00,
2013-07-20 10:58:00,90.5,0.0,29.67,SSE,158,1.8,6.5,0,0.00,,,0.00,WUHU216HW,2013-07-20 14:58:00,
2013-07-20 11:03:00,90.5,0.0,29.67,West,270,3.6,3.6,0,0.00,,,0.00,WUHU216HW,2013-07-20 15:03:00,
2013-07-20 11:08:00,90.7,0.0,29.67,WSW,248,0.4,3.6,0,0.00,,,0.00,WUHU216HW,2013-07-20 15:08:00,
2013-07-20 11:13:00,91.4,0.0,29.67,WNW,293,3.4,4.9,0,0.00,,,0.00,WUHU216HW,2013-07-20 15:13:00,
2013-07-20 11:18:00,91.4,0.0,29.67,West,270,3.4,4.9,0,0.00,,,0.00,WUHU216HW,2013-07-20 15:18:00,
2013-07-20 11:23:00,91.3,0.0,29.67,WNW,293,6.3,6.5,0,0.00,,,0.00,WUHU216HW,2013-07-20 15:23:00,
2013-07-20 11:28:00,90.7,0.0,29.67,SW,225,4.7,6.5,0,0.00,,,0.00,WUHU216HW,2013-07-20 15:28:00,
2013-07-20 11:33:00,90.0,0.0,29.67,SW,225,2.7,4.7,0,0.00,,,0.00,WUHU216HW,2013-07-20 15:33:00,
2013-07-20 11:38:00,89.5,0.0,29.67,West,270,5.4,5.4,0,0.00,,,0.00,WUHU216HW,2013-07-20 15:38:00,
2013-07-20 11:43:00,89.3,0.0,29.67,WSW,248,1.1,5.4,0,0.00,,,0.00,WUHU216HW,2013-07-20 15:43:00,
2013-07-20 11:48:00,89.6,0.0,29.67,WSW,248,2.5,4.0,0,0.00,,,0.00,WUHU216HW,2013-07-20 15:48:00,
2013-07-20 11:53:00,90.5,0.0,29.66,WSW,248,0.9,4.7,0,0.00,,,0.00,WUHU216HW,2013-07-20 15:53:00,
2013-07-20 11:58:00,90.9,0.0,29.66,West,270,3.4,4.7,0,0.00,,,0.00,WUHU216HW,2013-07-20 15:58:00,
2013-07-20 12:03:00,91.1,0.0,29.66,WSW,248,2.7,4.0,0,0.00,,,0.00,WUHU216HW,2013-07-20 16:03:00,
2013-07-20 12:08:00,91.1,0.0,29.66,WNW,293,3.6,3.6,0,0.00,,,0.00,WUHU216HW,2013-07-20 16:08:00,
2013-07-20 12:13:00,90.7,0.0,29.66,NNW,338,1.3,5.1,0,0.00,,,0.00,WUHU216HW,2013-07-20 16:13:00,
2013-07-20 12:18:00,90.0,0.0,29.66,NW,315,2.7,5.1,0,0.00,,,0.00,WUHU216HW,2013-07-20 16:18:00,
2013-07-20 12:23:00,90.0,0.0,29.66,WNW,293,0.9,5.1,0,0.00,,,0.00,WUHU216HW,2013-07-20 16:23:00,
2013-07-20 12:28:00,90.5,0.0,29.66,West,270,4.0,4.0,0,0.00,,,0.00,WUHU216HW,2013-07-20 16:28:00,
2013-07-20 12:33:00,91.1,0.0,29.66,NNW,338,3.6,4.0,0,0.00,,,0.00,WUHU216HW,2013-07-20 16:33:00,
2013-07-20 12:38:00,91.1,0.0,29.66,West,270,3.4,4.5,0,0.00,,,0.00,WUHU216HW,2013-07-20 16:38:00,
2013-07-20 12:43:00,91.3,0.0,29.65,SW,225,2.5,6.9,0,0.00,,,0.00,WUHU216HW,2013-07-20 16:43:00,
2013-07-20 12:48:00,91.3,0.0,29.65,NW,315,0.7,6.9,0,0.00,,,0.00,WUHU216HW,2013-07-20 16:48:00,
2013-07-20 12:54:00,91.3,0.0,29.65,SW,225,1.8,5.4,0,0.00,,,0.00,WUHU216HW,2013-07-20 16:54:00,
2013-07-20 12:59:00,91.4,0.0,29.65,West,270,3.4,5.4,0,0.00,,,0.00,WUHU216HW,2013-07-20 16:59:00,
2013-07-20 13:04:00,91.3,0.0,29.65,SW,225,1.6,5.4,0,0.00,,,0.00,WUHU216HW,2013-07-20 17:04:00,
2013-07-20 13:09:00,91.3,0.0,29.65,WNW,293,6.3,6.3,0,0.00,,,0.00,WUHU216HW,2013-07-20 17:09:00,
2013-07-20 13:14:00,91.1,0.0,29.65,WSW,248,2.2,6.3,0,0.00,,,0.00,WUHU216HW,2013-07-20 17:14:00,
2013-07-20 13:19:00,91.1,0.0,29.64,SW,225,1.8,7.2,0,0.00,,,0.00,WUHU216HW,2013-07-20 17:19:00,
2013-07-20 13:24:00,91.4,0.0,29.64,West,270,4.7,7.2,0,0.00,,,0.00,WUHU216HW,2013-07-20 17:24:00,
2013-07-20 13:29:00,92.2,0.0,29.64,West,270,3.4,5.4,0,0.00,,,0.00,WUHU216HW,2013-07-20 17:29:00,
2013-07-20 13:34:00,92.2,0.0,29.64,SW,225,2.5,6.9,0,0.00,,,0.00,WUHU216HW,2013-07-20 17:34:00,
2013-07-20 13:39:00,92.0,0.0,29.64,West,270,4.3,7.4,0,0.00,,,0.00,WUHU216HW,2013-07-20 17:39:00,
2013-07-20 13:44:00,91.8,0.0,29.64,WSW,248,3.8,7.4,0,0.00,,,0.00,WUHU216HW,2013-07-20 17:44:00,
2013-07-20 13:49:00,91.6,0.0,29.64,South,180,1.8,3.8,0,0.00,,,0.00,WUHU216HW,2013-07-20 17:49:00,
2013-07-20 13:54:00,91.6,0.0,29.64,WSW,248,4.7,4.7,0,0.00,,,0.00,WUHU216HW,2013-07-20 17:54:00,
2013-07-20 13:59:00,92.0,0.0,29.63,SSW,203,4.0,4.7,0,0.00,,,0.00,WUHU216HW,2013-07-20 17:59:00,
2013-07-20 14:04:00,92.7,0.0,29.63,South,180,4.0,5.6,0,0.00,,,0.00,WUHU216HW,2013-07-20 18:04:00,
2013-07-20 14:09:00,92.9,0.0,29.62,WNW,293,2.9,6.0,0,0.00,,,0.00,WUHU216HW,2013-07-20 18:09:00,
2013-07-20 14:14:00,92.7,0.0,29.63,WSW,248,3.1,9.6,0,0.00,,,0.00,WUHU216HW,2013-07-20 18:14:00,
2013-07-20 14:19:00,92.7,0.0,29.62,WSW,248,4.0,9.6,0,0.00,,,0.00,WUHU216HW,2013-07-20 18:19:00,
2013-07-20 14:24:00,92.7,0.0,29.62,North,0,6.3,8.5,0,0.00,,,0.00,WUHU216HW,2013-07-20 18:24:00,
2013-07-20 14:29:00,92.3,0.0,29.62,West,270,5.4,11.0,0,0.00,,,0.00,WUHU216HW,2013-07-20 18:29:00,
2013-07-20 14:34:00,92.2,0.0,29.62,WNW,293,10.7,11.0,0,0.00,,,0.00,WUHU216HW,2013-07-20 18:34:00,
2013-07-20 14:40:00,91.4,0.0,29.62,WSW,248,2.2,10.7,0,0.00,,,0.00,WUHU216HW,2013-07-20 18:40:00,
2013-07-20 14:45:00,91.3,0.0,29.62,NW,315,2.7,8.3,0,0.00,,,0.00,WUHU216HW,2013-07-20 18:45:00,
2013-07-20 14:50:00,91.4,0.0,29.62,West,270,4.7,7.6,0,0.00,,,0.00,WUHU216HW,2013-07-20 18:50:00,
2013-07-20 14:55:00,91.6,0.0,29.62,SW,225,2.5,6.9,0,0.00,,,0.00,WUHU216HW,2013-07-20 18:55:00,
2013-07-20 15:00:00,91.6,0.0,29.62,NNW,338,3.1,6.9,0,0.00,,,0.00,WUHU216HW,2013-07-20 19:00:00,
2013-07-20 15:05:00,90.7,0.0,29.62,WSW,248,5.4,6.9,0,0.00,,,0.00,WUHU216HW,2013-07-20 19:05:00,
2013-07-20 15:11:00,89.8,0.0,29.62,West,270,5.8,6.9,0,0.00,,,0.00,WUHU216HW,2013-07-20 19:11:00,
2013-07-20 15:16:00,89.6,0.0,29.62,NW,315,3.4,6.3,0,0.00,,,0.00,WUHU216HW,2013-07-20 19:16:00,
2013-07-20 15:21:00,89.6,0.0,29.62,ENE,68,2.7,9.8,0,0.00,,,0.00,WUHU216HW,2013-07-20 19:21:00,
2013-07-20 15:26:00,89.6,0.0,29.63,SW,225,2.7,8.9,0,0.00,,,0.00,WUHU216HW,2013-07-20 19:26:00,
2013-07-20 15:32:00,89.6,0.0,29.63,WSW,248,2.5,8.5,0,0.00,,,0.00,WUHU216HW,2013-07-20 19:32:00,
2013-07-20 15:37:00,90.0,0.0,29.63,West,270,4.7,8.5,0,0.00,,,0.00,WUHU216HW,2013-07-20 19:37:00,
2013-07-20 15:42:00,90.0,0.0,29.63,West,270,3.4,7.6,0,0.00,,,0.00,WUHU216HW,2013-07-20 19:42:00,
2013-07-20 15:47:00,89.8,0.0,29.63,West,270,6.3,7.6,0,0.00,,,0.00,WUHU216HW,2013-07-20 19:47:00,
2013-07-20 15:53:00,89.3,0.0,29.63,WSW,248,4.5,7.6,0,0.00,,,0.00,WUHU216HW,2013-07-20 19:53:00,
2013-07-20 15:58:00,89.1,0.0,29.62,SW,225,3.4,6.9,0,0.00,,,0.00,WUHU216HW,2013-07-20 19:58:00,
2013-07-20 16:03:00,89.1,0.0,29.62,WSW,248,1.8,4.7,0,0.00,,,0.00,WUHU216HW,2013-07-20 20:03:00,
2013-07-20 16:08:00,89.6,0.0,29.62,NNW,338,3.8,8.3,0,0.00,,,0.00,WUHU216HW,2013-07-20 20:08:00,
2013-07-20 16:13:00,89.6,0.0,29.62,West,270,2.2,8.3,0,0.00,,,0.00,WUHU216HW,2013-07-20 20:13:00,
2013-07-20 16:18:00,89.5,0.0,29.62,SSW,203,2.0,8.5,0,0.00,,,0.00,WUHU216HW,2013-07-20 20:18:00,
2013-07-20 16:23:00,88.6,0.0,29.63,SW,225,6.0,8.5,0,0.00,,,0.00,WUHU216HW,2013-07-20 20:23:00,
2013-07-20 16:28:00,88.0,0.0,29.63,West,270,6.0,7.8,0,0.00,,,0.00,WUHU216HW,2013-07-20 20:28:00,
2013-07-20 16:33:00,87.5,0.0,29.63,West,270,3.8,7.4,0,0.00,,,0.00,WUHU216HW,2013-07-20 20:33:00,
2013-07-20 16:38:00,87.3,0.0,29.63,WNW,293,4.5,6.0,0,0.00,,,0.00,WUHU216HW,2013-07-20 20:38:00,
2013-07-20 16:43:00,86.9,0.0,29.63,West,270,4.0,6.0,0,0.00,,,0.00,WUHU216HW,2013-07-20 20:43:00,
2013-07-20 16:48:00,86.9,0.0,29.63,WNW,293,3.1,4.5,0,0.00,,,0.00,WUHU216HW,2013-07-20 20:48:00,
2013-07-20 16:53:00,87.1,0.0,29.64,South,180,3.4,6.9,0,0.00,,,0.00,WUHU216HW,2013-07-20 20:53:00,
2013-07-20 16:58:00,87.1,0.0,29.64,SSW,203,2.7,6.9,0,0.00,,,0.00,WUHU216HW,2013-07-20 20:58:00,
2013-07-20 17:03:00,87.1,0.0,29.64,WNW,293,1.1,4.0,0,0.00,,,0.00,WUHU216HW,2013-07-20 21:03:00,
2013-07-20 17:08:00,87.5,0.0,29.65,NW,315,1.8,4.0,0,0.00,,,0.00,WUHU216HW,2013-07-20 21:08:00,
2013-07-20 17:14:00,87.8,0.0,29.65,South,180,1.6,2.9,0,0.00,,,0.00,WUHU216HW,2013-07-20 21:14:00,
2013-07-20 17:19:00,88.2,0.0,29.65,West,270,1.8,2.9,0,0.00,,,0.00,WUHU216HW,2013-07-20 21:19:00,
2013-07-20 17:24:00,88.6,0.0,29.65,SE,135,3.4,4.0,0,0.00,,,0.00,WUHU216HW,2013-07-20 21:24:00,
2013-07-20 17:29:00,88.4,0.0,29.65,West,270,2.5,4.0,0,0.00,,,0.00,WUHU216HW,2013-07-20 21:29:00,
2013-07-20 17:34:00,88.0,0.0,29.66,WSW,248,0.9,2.9,0,0.00,,,0.00,WUHU216HW,2013-07-20 21:34:00,
2013-07-20 17:39:00,87.5,0.0,29.66,SW,225,0.7,2.9,0,0.00,,,0.00,WUHU216HW,2013-07-20 21:39:00,
2013-07-20 17:44:00,86.9,0.0,29.66,SSW,203,0.2,1.1,0,0.00,,,0.00,WUHU216HW,2013-07-20 21:44:00,
2013-07-20 17:49:00,86.8,0.0,29.66,WSW,248,0.9,1.1,0,0.00,,,0.00,WUHU216HW,2013-07-20 21:49:00,
2013-07-20 17:55:00,86.4,0.0,29.66,WSW,248,0.7,1.3,0,0.00,,,0.00,WUHU216HW,2013-07-20 21:55:00,
2013-07-20 18:00:00,85.9,0.0,29.66,SSW,203,0.0,1.3,0,0.00,,,0.00,WUHU216HW,2013-07-20 22:00:00,
2013-07-20 18:05:00,85.7,0.0,29.66,WSW,248,0.7,0.7,0,0.00,,,0.00,WUHU216HW,2013-07-20 22:05:00,
2013-07-20 18:10:00,85.1,0.0,29.66,WSW,248,0.0,1.1,0,0.00,,,0.00,WUHU216HW,2013-07-20 22:10:00,
2013-07-20 18:15:00,84.8,0.0,29.66,West,270,0.2,1.1,0,0.00,,,0.00,WUHU216HW,2013-07-20 22:15:00,
2013-07-20 18:20:00,84.4,0.0,29.66,WSW,248,1.1,1.1,0,0.00,,,0.00,WUHU216HW,2013-07-20 22:20:00,
2013-07-20 18:25:00,84.2,0.0,29.66,WSW,248,0.0,1.1,0,0.00,,,0.00,WUHU216HW,2013-07-20 22:25:00,
2013-07-20 18:30:00,83.9,0.0,29.66,WSW,248,0.4,1.8,0,0.00,,,0.00,WUHU216HW,2013-07-20 22:30:00,
2013-07-20 18:35:00,83.5,0.0,29.66,West,270,0.7,1.8,0,0.00,,,0.00,WUHU216HW,2013-07-20 22:35:00,
2013-07-20 18:40:00,83.3,0.0,29.66,West,270,0.9,1.3,0,0.00,,,0.00,WUHU216HW,2013-07-20 22:40:00,
2013-07-20 18:45:00,83.2,0.0,29.66,West,270,1.1,1.1,0,0.00,,,0.00,WUHU216HW,2013-07-20 22:45:00,
2013-07-20 18:51:00,83.2,0.0,29.66,WNW,293,1.3,1.6,0,0.00,,,0.00,WUHU216HW,2013-07-20 22:51:00,
2013-07-20 18:56:00,83.2,0.0,29.67,NNE,23,4.9,4.9,0,0.00,,,0.00,WUHU216HW,2013-07-20 22:56:00,
2013-07-20 19:01:00,83.2,0.0,29.67,NW,315,5.4,5.4,0,0.00,,,0.00,WUHU216HW,2013-07-20 23:01:00,
2013-07-20 19:06:00,83.2,0.0,29.67,NW,315,3.1,5.4,0,0.00,,,0.00,WUHU216HW,2013-07-20 23:06:00,
2013-07-20 19:11:00,83.2,0.0,29.67,SE,135,1.6,5.1,0,0.00,,,0.00,WUHU216HW,2013-07-20 23:11:00,
2013-07-20 19:16:00,83.0,0.0,29.68,WNW,293,4.0,4.0,0,0.00,,,0.00,WUHU216HW,2013-07-20 23:16:00,
2013-07-20 19:21:00,82.8,0.0,29.68,West,270,1.6,4.0,0,0.00,,,0.00,WUHU216HW,2013-07-20 23:21:00,
2013-07-20 19:26:00,82.6,0.0,29.68,NNW,338,4.9,4.9,0,0.00,,,0.00,WUHU216HW,2013-07-20 23:26:00,
2013-07-20 19:32:00,82.1,0.0,29.68,WSW,248,1.8,6.3,0,0.00,,,0.00,WUHU216HW,2013-07-20 23:32:00,
2013-07-20 19:37:00,81.7,0.0,29.68,NNW,338,0.9,6.3,0,0.00,,,0.00,WUHU216HW,2013-07-20 23:37:00,
2013-07-20 19:42:00,81.2,0.0,29.68,WNW,293,2.0,4.0,0,0.00,,,0.00,WUHU216HW,2013-07-20 23:42:00,
2013-07-20 19:47:00,80.8,0.0,29.68,SW,225,2.2,4.0,0,0.00,,,0.00,WUHU216HW,2013-07-20 23:47:00,
2013-07-20 19:52:00,80.8,0.0,29.68,WSW,248,2.2,3.4,0,0.00,,,0.00,WUHU216HW,2013-07-20 23:52:00,
2013-07-20 19:57:00,80.3,0.0,29.68,SW,225,0.7,5.4,0,0.00,,,0.00,WUHU216HW,2013-07-20 23:57:00,
2013-07-20 20:02:00,80.1,0.0,29.69,NW,315,2.5,5.4,0,0.00,,,0.00,WUHU216HW,2013-07-21 00:02:00,
2013-07-20 20:07:00,80.1,0.0,29.68,SW,225,3.4,5.4,0,0.00,,,0.00,WUHU216HW,2013-07-21 00:07:00,
2013-07-20 20:12:00,79.9,0.0,29.69,West,270,2.5,3.6,0,0.00,,,0.00,WUHU216HW,2013-07-21 00:12:00,
2013-07-20 20:17:00,79.7,0.0,29.69,SW,225,2.5,3.8,0,0.00,,,0.00,WUHU216HW,2013-07-21 00:17:00,
2013-07-20 20:22:00,79.6,0.0,29.69,WSW,248,5.4,5.4,0,0.00,,,0.00,WUHU216HW,2013-07-21 00:22:00,
2013-07-20 20:27:00,79.6,0.0,29.69,WSW,248,2.5,5.4,0,0.00,,,0.00,WUHU216HW,2013-07-21 00:27:00,
2013-07-20 20:32:00,79.6,0.0,29.70,SW,225,1.6,4.0,0,0.00,,,0.00,WUHU216HW,2013-07-21 00:32:00,
2013-07-20 20:37:00,79.4,0.0,29.70,West,270,2.2,2.9,0,0.00,,,0.00,WUHU216HW,2013-07-21 00:37:00,
2013-07-20 20:42:00,79.0,0.0,29.70,WSW,248,1.3,2.5,0,0.00,,,0.00,WUHU216HW,2013-07-21 00:42:00,
2013-07-20 20:48:00,78.8,0.0,29.70,WSW,248,0.4,2.5,0,0.00,,,0.00,WUHU216HW,2013-07-21 00:48:00,
2013-07-20 20:53:00,78.5,0.0,29.70,WSW,248,0.0,2.5,0,0.00,,,0.00,WUHU216HW,2013-07-21 00:53:00,
2013-07-20 20:58:00,78.5,0.0,29.70,ENE,68,0.0,1.1,0,0.00,,,0.00,WUHU216HW,2013-07-21 00:58:00,
2013-07-20 21:03:00,78.1,0.0,29.71,SW,225,0.0,1.1,0,0.00,,,0.00,WUHU216HW,2013-07-21 01:03:00,
2013-07-20 21:08:00,77.8,0.0,29.71,West,270,0.9,1.1,0,0.00,,,0.00,WUHU216HW,2013-07-21 01:08:00,
2013-07-20 21:14:00,77.4,0.0,29.72,West,270,0.0,1.1,0,0.00,,,0.00,WUHU216HW,2013-07-21 01:14:00,
2013-07-20 21:19:00,77.0,0.0,29.72,WNW,293,1.1,1.6,0,0.00,,,0.00,WUHU216HW,2013-07-21 01:19:00,
2013-07-20 21:24:00,76.5,0.0,29.72,WSW,248,0.7,1.8,0,0.00,,,0.00,WUHU216HW,2013-07-21 01:24:00,
2013-07-20 21:29:00,76.0,0.0,29.72,WNW,293,0.4,1.8,0,0.00,,,0.00,WUHU216HW,2013-07-21 01:29:00,
2013-07-20 21:34:00,75.8,0.0,29.72,WNW,293,0.0,0.4,0,0.00,,,0.00,WUHU216HW,2013-07-21 01:34:00,
2013-07-20 21:39:00,75.1,0.0,29.73,WNW,293,0.0,0.4,0,0.00,,,0.00,WUHU216HW,2013-07-21 01:39:00,
2013-07-20 21:44:00,74.5,0.0,29.73,WNW,293,0.0,0.4,0,0.00,,,0.00,WUHU216HW,2013-07-21 01:44:00,
2013-07-20 21:50:00,74.2,0.0,29.73,West,270,0.7,0.7,0,0.00,,,0.00,WUHU216HW,2013-07-21 01:50:00,
2013-07-20 21:55:00,73.8,0.0,29.73,WSW,248,0.4,0.7,0,0.00,,,0.00,WUHU216HW,2013-07-21 01:55:00,
2013-07-20 22:00:00,73.4,0.0,29.73,West,270,0.0,1.1,0,0.00,,,0.00,WUHU216HW,2013-07-21 02:00:00,
2013-07-20 22:05:00,73.1,0.0,29.73,West,270,0.4,1.1,0,0.00,,,0.00,WUHU216HW,2013-07-21 02:05:00,
2013-07-20 22:10:00,72.7,0.0,29.74,West,270,0.2,0.9,0,0.00,,,0.00,WUHU216HW,2013-07-21 02:10:00,
2013-07-20 22:15:00,72.5,0.0,29.74,WSW,248,0.4,1.3,0,0.00,,,0.00,WUHU216HW,2013-07-21 02:15:00,
2013-07-20 22:20:00,72.4,0.0,29.74,SW,225,0.0,1.3,0,0.00,,,0.00,WUHU216HW,2013-07-21 02:20:00,
2013-07-20 22:25:00,72.2,0.0,29.74,SW,225,0.4,1.1,0,0.00,,,0.00,WUHU216HW,2013-07-21 02:25:00,
2013-07-20 22:30:00,72.0,0.0,29.75,West,270,0.0,1.1,0,0.00,,,0.00,WUHU216HW,2013-07-21 02:30:00,
2013-07-20 22:35:00,71.6,0.0,29.75,West,270,0.4,1.1,0,0.00,,,0.00,WUHU216HW,2013-07-21 02:35:00,
2013-07-20 22:40:00,71.3,0.0,29.75,SW,225,0.7,0.7,0,0.00,,,0.00,WUHU216HW,2013-07-21 02:40:00,
2013-07-20 22:45:00,70.9,0.0,29.75,WSW,248,0.0,0.9,0,0.00,,,0.00,WUHU216HW,2013-07-21 02:45:00,
2013-07-20 22:51:00,70.7,0.0,29.75,SSE,158,0.0,0.9,0,0.00,,,0.00,WUHU216HW,2013-07-21 02:51:00,
2013-07-20 22:56:00,70.6,0.0,29.76,SSW,203,0.0,1.1,0,0.00,,,0.00,WUHU216HW,2013-07-21 02:56:00,
2013-07-20 23:01:00,70.2,0.0,29.76,WSW,248,1.1,1.1,0,0.00,,,0.00,WUHU216HW,2013-07-21 03:01:00,
2013-07-20 23:06:00,70.0,0.0,29.75,SW,225,0.0,1.1,0,0.00,,,0.00,WUHU216HW,2013-07-21 03:06:00,
2013-07-20 23:11:00,69.8,0.0,29.75,SW,225,0.0,0.4,0,0.00,,,0.00,WUHU216HW,2013-07-21 03:11:00,
2013-07-20 23:16:00,69.7,0.0,29.75,SW,225,0.0,0.0,0,0.00,,,0.00,WUHU216HW,2013-07-21 03:16:00,
2013-07-20 23:22:00,69.3,0.0,29.76,SW,225,0.0,0.0,0,0.00,,,0.00,WUHU216HW,2013-07-21 03:22:00,
2013-07-20 23:27:00,68.9,0.0,29.76,SW,225,0.0,0.0,0,0.00,,,0.00,WUHU216HW,2013-07-21 03:27:00,
2013-07-20 23:32:00,68.8,0.0,29.76,SW,225,0.0,0.0,0,0.00,,,0.00,WUHU216HW,2013-07-21 03:32:00,
2013-07-20 23:37:00,68.6,0.0,29.76,SW,225,0.0,0.0,0,0.00,,,0.00,WUHU216HW,2013-07-21 03:37:00,
2013-07-20 23:42:00,68.4,0.0,29.77,SW,225,0.0,0.0,0,0.00,,,0.00,WUHU216HW,2013-07-21 03:42:00,
2013-07-20 23:48:00,68.2,0.0,29.77,SW,225,0.0,0.0,0,0.00,,,0.00,WUHU216HW,2013-07-21 03:48:00,
2013-07-20 23:54:00,67.9,0.0,29.77,SW,225,0.0,0.0,0,0.00,,,0.00,WUHU216HW,2013-07-21 03:54:00,
2013-07-20 23:59:00,67.7,0.0,29.77,SW,225,0.0,0.0,0,0.00,,,0.00,WUHU216HW,2013-07-21 03:59:00,